Regional Weather Roundup
Issued by NWS Upton, NY

Current Version | Previous Version | Graphics & Text | Print | Product List | Glossary Off
Versions: 1 2 3 4 5 6 7 8 9 10 11 12 13 14 15 16 17 18 19 20 21 22 23 24 25 26 27 28 29 30 31 32 33 34 35 36 37 38 39 40 41 42 43 44 45 46 47 48 49 50

000
ASUS41 KOKX 282004
RWROKX

REGIONAL WEATHER ROUNDUP
NATIONAL WEATHER SERVICE NEW YORK NY
400 PM EDT SAT MAY 28 2016

NOTE: "FAIR" INDICATES FEW OR NO CLOUDS BELOW 12,000 FEET WITH NO
SIGNIFICANT WEATHER AND/OR OBSTRUCTIONS TO VISIBILITY.

NYZ071-072-176-178-NJZ106-104-282100-
NEW YORK CITY METRO AREA


CITY           SKY/WX    TMP DP  RH WIND       PRES   REMARKS
CENTRAL PARK   SUNNY     88  65  46 S6G16     30.10S HX  90
LAGUARDIA APRT MOSUNNY   88  63  42 S17       30.07F
KENNEDY INTL   MOSUNNY   77  61  57 S20       30.11F
NEWARK/LIBERTY MOSUNNY   94  63  35 SW13G22   30.06F HX  95
BRNX BOT. GARD   N/A     84  64  51 S6        30.09F
TETERBORO      MOSUNNY   92  64  39 S13       30.05S HX  93
$$

NYZ177-179-078>081-282100-
LONG ISLAND NEW YORK

CITY           SKY/WX    TMP DP  RH WIND       PRES   REMARKS
FARMINGDALE    SUNNY     78  64  61 S14       30.11F
ISLIP          MOSUNNY   78  63  59 SW15      30.11S
SHIRLEY        SUNNY     77  63  61 SW10G21   30.12F
RIVERHEAD        N/A     82  68  61 W1        30.09S
WESTHAMPTON    SUNNY     74  61  63 SW13G20   30.13F
EAST HAMPTON   FAIR      74  62  66 SW12G18   30.11F
MONTAUK POINT    N/A     71  62  73 S10G22    30.12F
$$

NYZ052-065-067-282100-
HUDSON VALLEY

CITY           SKY/WX    TMP DP  RH WIND       PRES   REMARKS
WHITE PLAINS   MOSUNNY   86  67  52 S9        30.09S
NEWBURGH       MOSUNNY   90  66  45 SW7       30.08F HX  92
MONTGOMERY     MOSUNNY   91  67  44 W12       30.06S HX  94
POUGHKEEPSIE   MOSUNNY   93  64  38 SW9       30.04S HX  94
ALBANY         PTSUNNY   93  62  35 CALM      30.05F HX  93
$$

NJZ001-105-106-008-010-013-015-019>022-104-282100-
NEW JERSEY

CITY           SKY/WX    TMP DP  RH WIND       PRES   REMARKS
NEWARK/LIBERTY MOSUNNY   94  63  35 SW13G22   30.06F HX  95
TETERBORO      MOSUNNY   92  64  39 S13       30.05S HX  93
CALDWELL       SUNNY     92  64  39 SW8       30.07S HX  93
MORRISTOWN     MOSUNNY   91  66  43 SW9G20    30.08S HX  94
SOMERVILLE     MOSUNNY   89  68  49 MISG      30.07S HX  93
SUSSEX         PTSUNNY   78  68  71 CALM      30.10S
ANDOVER          N/A     81  68  64 NE6       30.10S
TRENTON        MOSUNNY   90  66  45 SW13G18   30.09F HX  92
MILLVILLE      SUNNY     82  65  56 SE13G18   30.14F
ATLANTIC CITY  SUNNY     82  60  47 S13G23    30.15R
WRIGHTSTOWN    MOSUNNY   89  68  49 SW17      30.08S HX  92
TOMS RIVER     MOSUNNY   90  64  43 S13G20    30.11S HX  91
BELMAR         MOSUNNY   86  68  54 SE8       30.11S
$$

PAZ047>061-062-071-282100-
EASTERN PENNSYLVANIA

CITY           SKY/WX    TMP DP  RH WIND       PRES   REMARKS
PHILADELPHIA   MOSUNNY   90  64  42 SW16      30.11F HX  91
ALLENTOWN      PTSUNNY   91  68  46 SW12      30.08F HX  95
SCRANTON       PTSUNNY   87  63  44 CALM      30.10S
$$

CTZ002-004>006-009-010-012-RIZ004-006-007-MAZ004-011-015-282100-
SOUTHERN NEW ENGLAND
 IN CT

CITY           SKY/WX    TMP DP  RH WIND       PRES   REMARKS
BRADLEY INTL   PTSUNNY   91  68  46 SE12      30.03F HX  95
HARTFORD       MOSUNNY   94  68  42 S13G18    30.03F HX  98
DANBURY        MOSUNNY   88  66  48 S8        30.08F HX  90
WTRBRY/OXFORD  PTSUNNY   86  66  51 SW9G18    30.12F
BRIDGEPORT     SUNNY     83  66  56 S16       30.07F
MERIDEN        SUNNY     88  66  48 S14       30.06F HX  90
NEW HAVEN      MOSUNNY   81  66  60 S10       30.07F
CHESTER        FAIR      84  66  54 S7G15     30.10S
GROTON         SUNNY     73  65  75 SW8       30.09F
WILLIMANTIC    MOSUNNY   89  66  46 S8        30.06S HX  91

 IN RI

CITY           SKY/WX    TMP DP  RH WIND       PRES   REMARKS
PROVIDENCE     PTSUNNY   89  65  44 SW14      30.05F HX  91
BLOCK ISLAND   SUNNY     66  59  78 SW23      30.11F
WESTERLY       SUNNY     76  60  57 S12       30.11S

 IN MA

CITY           SKY/WX    TMP DP  RH WIND       PRES   REMARKS
BOSTON         PTSUNNY   83  64  52 E7        30.03S
WORCESTER      NOT AVBL
WESTFIELD      SUNNY     91  67  44 S6        30.04F HX  94
PROVINCETOWN   MOSUNNY   76  62  62 S16G23    30.07F
NANTUCKET      SUNNY     65  58  78 SW15      30.13S
$$

ANZ330-335-338-340-345-350-353-355-282100-
COASTAL MARINE OBSERVATIONS


STATION/POSITION TIME  SKY/WX   TEMP    WIND        PRES    VSBY  WAVE
                                AIR SEA DIR/SP/G                  HT/PER
                 (UTC)          (F)     (DEG/KT/KT) (MB)    (MI)  (FT/S)
NY HARB ENTRANCE 1850            63 60  200/ 17/ 19 1018.9          3/ 4
20S FIRE ISLAND  1850            63 60  210/ 16/ 19 1019.8          3/ 4
GREAT SOUTH BAY  1930            67 70  230/ 10/ 16   N/A
23 SSW MONTAUK P 1950            61 57  230/ 16/ 19 1019.3          3/ 4
15 E BARNEGAT LI 1922               60                N/A           3/ 4
HUDSON CANYON    1850            62 59              1021.5          3/ 9
KINGS POINT      1900            75 64              1018.5
EXECUTION ROCKS  NOT AVBL
CENTRAL LI SOUND 1845            74     180/  6/  8   N/A           1
EASTERN LI SOUND 1900            60 54  170/  4/  6   N/A
ROBBINS REEF     1906            77     170/ 16/ 18 1018.0
$$


>>>>>>>>>>>>>>>>>>>>>>>>>>>> KEY <<<<<<<<<<<<<<<<<<<<<<<<<<<
>                                                          <
>     SKY/WX - SKY CONDITION/PRESENT WEATHER               <
>     TMP    - TEMPERATURE IN FAHRENHEIT                   <
>     DP     - DEWPOINT IN FAHRENHEIT                      <
>     RH     - RELATIVE HUMIDITY IN PERCENT                <
>     WIND   - DIRECTION AND SPEED IN MPH                  <
>     PRES   - MEAN SEA LEVEL PRESSURE IN INCHES OF HG     <
>     WCI    - WIND CHILL INDEX                            <
>     VSB    - VISIBILITY IN MILES                         <
>     HX     - HEAT INDEX                                  <
>     TC     - TEMPERATURE IN CELSIUS                      <
>     VRB    - VARIABLE WIND DIRECTION                     <
>                                                          <
>>>>>>>>>>>>>>>>>>>>>>>>>>>> KEY <<<<<<<<<<<<<<<<<<<<<<<<<<<





USA.gov is the U.S. government's official web portal to all federal, state and local government web resources and services.